Flag for U.S.A. Weather past 2 weeks in Sevierville, Tennessee, U.S.A.

Now
57 °F

Passing clouds.


Feels Like: 57 °F
Forecast: 54 / 85 °F
Wind: No wind

Location: McGhee Tyson Airport

Current Time: Oct 2, 2014 at 8:52:27 AM

Latest Report: Oct 2, 2014 at 7:53 AM


Visibility: 7 mi

Pressure: 30.08 "Hg

Humidity: 93%

Dew point: 55 °F

Location of SeviervilleLocation

Historic Weather in Sevierville — Graph

°F

Sevierville temperature yesterday

Maximum temperature yesterday: 83 °F (at 3:53 PM)
Minimum temperature yesterday: 56 °F (at 5:53 AM)
Average temperature yesterday: 68 °F

Past Weeks' High & Low Weather Summary

 TemperatureHumidityPressure
High85 °F (Sep 19, 3:53 PM)100% (Sep 28, 7:53 AM)30.31 "Hg (Sep 28, 7:53 AM)
Low50 °F (Sep 23, 6:53 AM)33% (Sep 24, 5:53 PM)29.86 "Hg (Sep 30, 5:53 PM)
Average68 °F71%30.06 "Hg
* Reported Sep 17 6:53 AM — Oct 2 6:53 AM, Sevierville, Weather by CustomWeather, © 2014

Note: Actual official high and low records may vary slightly from our data, if they occured in-between our weather recording intervals... More about our weather records

Advertising

Sevierville weather history for previous 24 hours

 ConditionsComfort  
Time TempWeatherWind HumidityBarometerVisibility
6:53 AM
Oct 2
57 °FFog.5 mph93%30.05 "Hg6 mi
5:53 AM58 °FClear.No wind90%30.03 "Hg9 mi
4:53 AM58 °FClear.No wind93%30.02 "Hg10 mi
3:53 AM59 °FClear.No wind90%30.01 "Hg10 mi
2:53 AM58 °FClear.No wind93%30.01 "Hg10 mi
1:53 AM62 °FClear.No wind80%30.00 "Hg10 mi
11:53 PM
Oct 1
65 °FClear.No wind73%30.00 "Hg10 mi
10:53 PM67 °FClear.No wind68%30.01 "Hg10 mi
9:53 PM67 °FClear.No wind66%30.00 "Hg10 mi
8:53 PM71 °FClear.No wind55%29.98 "Hg10 mi
7:53 PM75 °FSunny.No wind45%29.96 "Hg10 mi
5:53 PM82 °FScattered clouds.5 mph35%29.95 "Hg10 mi
4:53 PM82 °FPartly sunny.6 mph37%29.95 "Hg10 mi
3:53 PM83 °FBroken clouds.5 mph37%29.96 "Hg10 mi
2:53 PM81 °FBroken clouds.No wind38%29.96 "Hg10 mi
1:53 PM81 °FBroken clouds.5 mph39%29.97 "Hg10 mi
12:53 PM77 °FPartly sunny.No wind54%29.99 "Hg10 mi
10:53 AM71 °FPartly sunny.No wind68%30.01 "Hg7 mi
9:53 AM66 °FBroken clouds.No wind78%30.01 "Hg6 mi
8:53 AM59 °FFog.No wind90%29.99 "Hg4 mi
Weather by CustomWeather, © 2014

See weather overviewHow to use our weather pages